Location: Namasale
(1.5000°N, 32.6167°E)
Time: 15:01:44
(UTC+00:00)

Transit 2A - All Passes

Search period start: 19 April 2021 00:00
Search period end: 29 April 2021 00:00
Orbit: 602 x 957 km, 66.7° (Epoch: 18 April)

Date Brightness Start Highest point End Pass type
(mag) Time Alt. Az. Time Alt. Az. Time Alt. Az.
19 Apr - 03:06:40 10° S 03:11:55 39° ESE 03:16:41 10° NE visible
19 Apr - 04:52:20 10° W 04:54:43 13° WNW 04:56:59 10° NW daylight
19 Apr - 15:38:57 10° NNW 15:43:53 64° WSW 15:49:23 10° S daylight
20 Apr - 02:33:18 10° SSE 02:37:43 23° ESE 02:41:48 10° ENE visible
20 Apr - 04:16:26 10° WSW 04:20:37 22° WNW 04:24:31 10° NNW daylight
20 Apr - 15:04:47 10° NNW 15:09:44 75° ENE 15:15:16 10° SSE daylight
21 Apr - 02:00:41 10° SE 02:03:28 14° ESE 02:06:08 10° E visible
21 Apr - 03:41:27 10° SW 03:46:33 38° WNW 03:51:11 10° N daylight
21 Apr - 14:30:56 10° N 14:35:38 43° ENE 14:40:50 10° SE daylight
21 Apr - 16:16:55 10° W 16:18:46 12° WSW 16:20:41 10° SW visible
22 Apr - 03:06:55 10° SSW 03:12:27 65° WNW 03:17:25 10° N visible
22 Apr - 13:57:28 10° NNE 14:01:34 25° ENE 14:05:59 10° SE daylight
22 Apr - 15:40:45 10° WNW 15:44:31 20° WSW 15:48:32 10° SSW daylight
23 Apr - 02:32:44 10° SSW 02:38:20 74° ESE 02:43:20 10° NNE visible
23 Apr - 13:24:41 10° NE 13:27:29 15° ENE 13:30:24 10° ESE daylight
23 Apr - 15:05:43 10° NW 15:10:17 34° WSW 15:15:19 10° S daylight
24 Apr - 01:58:52 10° S 02:04:09 43° ESE 02:08:56 10° NE visible
24 Apr - 03:45:23 10° W 03:46:54 11° WNW 03:48:24 10° NW daylight
24 Apr - 14:31:09 10° NNW 14:36:06 58° WSW 14:41:37 10° S daylight
25 Apr - 01:25:24 10° SSE 01:29:57 26° ESE 01:34:08 10° ENE visible
25 Apr - 03:08:59 10° WSW 03:12:49 20° WNW 03:16:25 10° NNW visible
25 Apr - 13:56:55 10° NNW 14:01:57 83° ENE 14:07:34 10° SSE daylight
26 Apr - 00:52:36 10° SSE 00:55:42 15° ESE 00:58:39 10° ENE visible
26 Apr - 02:33:52 10° SW 02:38:45 33° WNW 02:43:12 10° N visible
26 Apr - 13:23:00 10° N 13:27:51 48° ENE 13:33:12 10° SE daylight
26 Apr - 15:09:51 10° W 15:11:00 11° WSW 15:12:10 10° SW daylight
27 Apr - 01:59:15 10° SSW 02:04:40 58° WNW 02:09:31 10° N visible
27 Apr - 12:49:27 10° NNE 12:53:46 28° ENE 12:58:27 10° SE daylight
27 Apr - 14:33:09 10° WNW 14:36:45 19° WSW 14:40:35 10° SSW daylight
28 Apr - 01:25:00 10° SSW 01:30:32 82° ESE 01:35:30 10° NNE visible
28 Apr - 12:16:27 10° NNE 12:19:41 17° ENE 12:23:05 10° ESE daylight
28 Apr - 13:57:59 10° NW 14:02:31 31° WSW 14:07:28 10° S daylight
